Hourly Data Report for January 20, 2003

SHERBROOKE A
QUEBEC

45°26'00.000" N
71°41'00.000" W
241.40 m
7028124
71610
YSC

Download Data

Hourly Data (January 2003)
Hourly Data Report for January 20, 2003
TIME
LST
Temp Definition
°C
Dew Point Definition
°C
Rel Hum Definition
%
Precip. Amount Definition
mm

Wind Dir Definition
10's deg

Wind Spd Definition
km/h
Visibility Definition
km
Stn Press Definition
kPa
Hmdx Definition


Wind Chill Definition


Weather Definition


00:00 -16.0 -18.5 81   7 6 15.0 97.33   -20  
01:00 -14.9 -17.7 79   8 6 15.0 97.20   -19  
02:00 -14.7 -17.6 79   8 6 15.0 97.13   -19  
03:00 -13.2 -16.4 77   6 6 15.0 97.04   -17  
04:00 -12.6 -15.6 78   7 4 2.7 96.91   -15 Snow
05:00 -12.2 -14.9 80   15 4 1.1 96.81   -15 Snow
06:00 -10.7 -13.7 79   17 6 2.1 96.76   -14 Snow
07:00 -10.7 -13.9 77   18 6 4.8 96.70   -14 Snow
08:00 -11.1 -14.5 76   18 6 16.1 96.65   -15 Mostly Cloudy
09:00 -10.1 -14.2 72   22 4 24.1 96.63   -12 Mostly Cloudy
10:00 -9.5 -14.2 69   23 15 19.3 96.65   -16 Snow Showers
11:00 -9.4 -13.8 70   23 15 4.0 96.63   -16 Snow Showers
12:00 -8.6 -15.5 57   25 22 24.1 96.60   -16 Snow Showers
13:00 -8.7 -16.4 54   27 24 24.1 96.62   -17 Snow Showers
14:00 -9.3 -18.7 46   26 32 24.1 96.68   -19 Snow Showers
15:00 -10.4 -17.0 58   27 30 9.7 96.78   -20 Snow Showers
16:00 -11.8 -17.1 65   25 22 16.1 96.92   -21 Snow Showers
17:00 -12.8 -17.6 67   25 22 3.2 97.02   -22 Snow Showers
18:00 -13.6 -18.4 67   25 20 8.0 97.12   -22  
19:00 -14.1 -19.3 65   26 24 12.9 97.21   -24  
20:00 -14.9 -20.1 64   26 26 11.3 97.33   -25  
21:00 -15.4 -19.8 69   26 32 5.6 97.38   -27  
22:00 -15.9 -20.0 71   26 24 2.4 97.48   -26 Snow
23:00 -16.3 -21.4 65   26 35 1.9 97.57   -29  

Notes on Data Quality.

Legend

  • E = Estimated
  • M = Missing
  • NA = Not Available*
  • [empty] = Indicates an unobserved value
Date modified: